Weather History for KAQW - March, 2013

Change the Weather History Date:

Tuesday, March 12, 2013

  Actual Average Record
Temperature  
Mean Temperature 46 °F -  
Max Temperature 54 °F 37 °F 69 °F (2012)
Min Temperature 39 °F 19 °F 6 °F (2005)
Degree Days  
Heating Degree Days 19    
Moisture  
Dew Point 42 °F    
Average Humidity 77    
Maximum Humidity 87    
Minimum Humidity 66    
Precipitation  
Precipitation 0.94 in - - ()
Sea Level Pressure  
Sea Level Pressure 29.80 in    
Wind  
Wind Speed 10 mph (ESE)    
Max Wind Speed 20 mph    
Max Gust Speed 29 mph    
Visibility 6 miles    
Events Rain    
Averages and records for this station are not official NWS values.
T = Trace of Precipitation, MM = Missing Value Source: NWS Daily Summary

Daily Weather History Graph

Daily Weather History Graph

Search for Another Location

Airport or City:

Trip Planner

Search our weather history database for the weather conditions in past years. The results will help you decide how hot, cold, wet, or windy it might be!

Date:

Astronomy

Mar. 12, 2013 Rise Set
Actual Time 7:09 AM EDT 6:55 PM EDT
Civil Twilight 6:41 AM EDT 7:23 PM EDT
Nautical Twilight 6:08 AM EDT 7:56 PM EDT
Astronomical Twilight 5:35 AM EDT 8:29 PM EDT
Moon 7:12 AM EDT (3/12) 8:10 PM EDT (3/12)
Length of Visible Light 12h 42m
Length of Day
11h 46m
New Moon, 1% of the Moon is Illuminated
Mar 12
New Moon
Mar 19
First Quarter
Mar 27
Full
Apr 3
Last Quarter
Apr 10
New

Hourly Weather History & Observations

Time (EDT) Temp. Windchill Dew Point Humidity Pressure Visibility Wind Dir Wind Speed Gust Speed Precip Events Conditions
12:44 AM 46.4 °F 44.3 °F 35.6 °F 66% 30.02 in 10.0 mi Variable 4.6 mph 23.0 mph N/A   Partly Cloudy
12:52 AM 46.9 °F - 36.0 °F 66% 30.04 in 10.0 mi Variable 5.8 mph - N/A   Partly Cloudy
2:52 AM 48.9 °F - 39.0 °F 69% 30.00 in 10.0 mi Variable 5.8 mph - N/A   Overcast
3:52 AM 48.9 °F - 39.9 °F 71% 29.96 in 10.0 mi ENE 8.1 mph - N/A   Overcast
4:52 AM 48.9 °F - 39.9 °F 71% 29.96 in 10.0 mi ENE 8.1 mph 20.7 mph N/A   Overcast
5:52 AM 48.9 °F - 41.0 °F 74% 29.96 in 10.0 mi ENE 11.5 mph 19.6 mph 0.00 in   Overcast
6:52 AM 50.0 °F - 41.0 °F 71% 29.94 in 10.0 mi East 16.1 mph 21.9 mph N/A   Overcast
7:02 AM 50.0 °F - 41.0 °F 71% 29.94 in 10.0 mi ESE 10.4 mph 20.7 mph N/A   Overcast
7:52 AM 50.0 °F - 42.1 °F 74% 29.93 in 10.0 mi Variable 6.9 mph - N/A   Overcast
8:52 AM 50.0 °F - 42.1 °F 74% 29.93 in 10.0 mi East 13.8 mph 20.7 mph N/A   Overcast
9:52 AM 51.1 °F - 42.1 °F 71% 29.93 in 10.0 mi East 13.8 mph 23.0 mph 0.00 in Rain Light Rain
10:52 AM 51.1 °F - 43.0 °F 74% 29.90 in 8.0 mi East 15.0 mph 26.5 mph 0.03 in Rain Light Rain
11:31 AM 51.8 °F - 44.6 °F 76% 29.87 in 6.0 mi ESE 18.4 mph 26.5 mph 0.04 in Rain Light Rain
11:52 AM 51.1 °F - 44.1 °F 77% 29.88 in 7.0 mi ESE 18.4 mph 28.8 mph 0.05 in Rain Light Rain
12:52 PM 51.1 °F - 45.0 °F 80% 29.86 in 4.0 mi East 12.7 mph 20.7 mph 0.03 in Rain Light Rain
1:52 PM 51.1 °F - 45.0 °F 80% 29.82 in 4.0 mi East 12.7 mph 21.9 mph 0.07 in Rain Light Rain
2:52 PM 51.1 °F - 45.0 °F 80% 29.78 in 5.0 mi ESE 10.4 mph - 0.08 in Rain Light Rain
3:11 PM 51.8 °F - 44.6 °F 76% 29.75 in 4.0 mi ESE 6.9 mph - 0.04 in Rain Rain
3:52 PM 51.1 °F - 45.0 °F 80% 29.74 in 4.0 mi ESE 8.1 mph - 0.14 in Rain Light Rain
4:03 PM 50.0 °F - 44.6 °F 82% 29.73 in 2.0 mi ESE 9.2 mph - 0.05 in Rain Rain
4:10 PM 51.8 °F - 44.6 °F 76% 29.72 in 1.8 mi East 8.1 mph - 0.09 in Rain Rain
4:19 PM 50.0 °F - 46.4 °F 87% 29.72 in 2.5 mi ESE 9.2 mph - 0.12 in Rain Rain
4:44 PM 51.8 °F - 44.6 °F 76% 29.71 in 1.5 mi ESE 10.4 mph - 0.27 in Rain Heavy Rain
4:52 PM 50.0 °F - 46.0 °F 86% 29.71 in 1.5 mi ESE 13.8 mph - 0.33 in Rain Heavy Rain
5:11 PM 50.0 °F - 46.4 °F 87% 29.68 in 2.5 mi ESE 12.7 mph - 0.08 in Rain Rain
5:18 PM 51.8 °F - 44.6 °F 76% 29.67 in 3.0 mi East 13.8 mph 20.7 mph 0.11 in Rain Rain
5:29 PM 51.8 °F - 46.4 °F 82% 29.67 in 2.5 mi ESE 12.7 mph - 0.14 in Rain Rain
5:48 PM 51.8 °F - 46.4 °F 82% 29.67 in 3.0 mi SE 15.0 mph 21.9 mph 0.17 in Rain Light Rain
5:52 PM 53.1 °F - 46.0 °F 77% 29.68 in 3.0 mi ESE 16.1 mph 21.9 mph 0.17 in Rain Light Rain
6:04 PM 53.6 °F - 46.4 °F 77% 29.67 in 2.0 mi ESE 19.6 mph 26.5 mph 0.00 in Rain Light Rain
6:12 PM 53.6 °F - 46.4 °F 77% 29.67 in 2.0 mi ESE 18.4 mph 28.8 mph 0.00 in Rain Light Rain
6:23 PM 53.6 °F - 46.4 °F 77% 29.67 in 2.5 mi ESE 15.0 mph 21.9 mph 0.01 in Rain Light Rain
6:41 PM 51.8 °F - 46.4 °F 82% 29.67 in 4.0 mi Calm Calm - 0.01 in   Haze
6:52 PM 51.1 °F - 46.9 °F 86% 29.69 in 4.0 mi NW 6.9 mph - 0.01 in Rain Light Rain
7:05 PM 50.0 °F - 46.4 °F 87% 29.69 in 4.0 mi West 8.1 mph - 0.01 in Rain Light Rain
7:13 PM 48.2 °F - 42.8 °F 82% 29.71 in 5.0 mi WSW 8.1 mph - 0.01 in Rain Light Rain
7:21 PM 46.4 °F 41.9 °F 41.0 °F 81% 29.72 in 3.0 mi WSW 9.2 mph - 0.02 in Rain Light Rain
7:28 PM 44.6 °F 39.2 °F 39.2 °F 81% 29.73 in 3.0 mi WSW 10.4 mph - 0.02 in Rain Light Rain
7:43 PM 44.6 °F 38.4 °F 37.4 °F 76% 29.75 in 4.0 mi WSW 12.7 mph - 0.03 in Rain Light Rain
7:52 PM 43.0 °F 36.4 °F 37.0 °F 80% 29.78 in 6.0 mi West 12.7 mph 19.6 mph 0.03 in Rain Light Rain
8:52 PM 41.0 °F 34.7 °F 35.1 °F 79% 29.81 in 10.0 mi West 10.4 mph - 0.00 in   Overcast
9:52 PM 39.9 °F 33.4 °F 32.0 °F 73% 29.83 in 10.0 mi West 10.4 mph 19.6 mph N/A   Overcast
10:52 PM 39.0 °F 32.3 °F 30.9 °F 73% 29.85 in 10.0 mi West 10.4 mph - N/A   Overcast
11:52 PM 39.0 °F 31.0 °F 28.9 °F 67% 29.85 in 10.0 mi West 13.8 mph 21.9 mph N/A   Overcast